| Date | Time | Temp. (oF) | Dew Point (oF) | Rel. Hum. (%) | Press. (in.) | Wind Dir. (deg.) | Wind Speed (mph) | Hourly Rainfall (i n.) |
|
|---|---|---|---|---|---|---|---|---|---|
| 1 | 10/11 | 24:00 | 66 | 64 | 96 | 30.21 | 130 | 0 | 0.00 |
| 2 | 10/10 | 23:00 | 66 | 64 | 96 | 30.20 | 130 | 0 | 0.00 |
| 3 | 10/10 | 22:00 | 67 | 65 | 95 | 30.21 | 130 | 0 | 0.00 |
| 4 | 10/10 | 21:00 | 67 | 65 | 95 | 30.20 | 130 | 1 | 0.00 |
| 5 | 10/10 | 20:00 | 67 | 65 | 95 | 30.20 | 130 | 0 | 0.00 |
| 6 | 10/10 | 19:00 | 68 | 65 | 93 | 30.19 | 130 | 2 | 0.00 |
| 7 | 10/10 | 18:00 | 68 | 65 | 93 | 30.19 | 140 | 1 | 0.00 |
| 8 | 10/10 | 17:00 | 68 | 65 | 93 | 30.19 | 140 | 1 | 0.00 |
| 9 | 10/10 | 16:00 | 68 | 65 | 93 | 30.20 | 140 | 2 | 0.00 |
| 10 | 10/10 | 15:00 | 67 | 65 | 95 | 30.20 | 130 | 6 | 0.00 |
| 11 | 10/10 | 14:00 | 67 | 65 | 96 | 30.23 | 130 | 4 | 0.00 |
| 12 | 10/10 | 13:00 | 66 | 65 | 97 | 30.25 | 330 | 4 | 0.01 |
| 13 | 10/10 | 12:00 | 65 | 64 | 97 | 30.26 | 130 | 4 | 0.00 |
| 14 | 10/10 | 11:00 | 65 | 64 | 98 | 30.27 | 270 | 4 | 0.00 |
| 15 | 10/10 | 10:00 | 64 | 63 | 98 | 30.28 | 150 | 2 | 0.03 |
| 16 | 10/10 | 09:00 | 64 | 63 | 98 | 30.29 | 190 | 7 | 0.05 |
| 17 | 10/10 | 08:00 | 63 | 62 | 97 | 30.29 | 110 | 6 | 0.20 |
| 18 | 10/10 | 07:00 | 63 | 61 | 95 | 30.32 | 110 | 1 | 0.16 |
| 19 | 10/10 | 06:00 | 63 | 61 | 95 | 30.33 | 330 | 0 | 0.22 |
| 20 | 10/10 | 05:00 | 63 | 61 | 95 | 30.35 | 310 | 0 | 0.17 |
| 21 | 10/10 | 04:00 | 62 | 60 | 95 | 30.36 | 310 | 0 | 0.11 |
| 22 | 10/10 | 03:00 | 63 | 61 | 94 | 30.38 | 310 | 0 | 0.07 |
| 23 | 10/10 | 02:00 | 62 | 60 | 94 | 30.39 | 310 | 0 | 0.06 |
| 24 | 10/10 | 01:00 | 63 | 60 | 93 | 30.41 | 310 | 0 | 0.02 |